TimeCDT,TemperatureF,Dew PointF,Humidity,Sea Level PressureIn,VisibilityMPH,Wind Direction,Wind SpeedMPH,Gust SpeedMPH,PrecipitationIn,Events,Conditions,WindDirDegrees,DateUTC
12:52 AM,48.0,26.1,42,30.35,10.0,North,8.1,-,N/A,,Overcast,10,2012-10-12 05:52:00
1:52 AM,46.9,25.0,42,30.36,10.0,North,10.4,-,N/A,,Overcast,360,2012-10-12 06:52:00
2:52 AM,45.0,25.0,46,30.37,10.0,NNE,9.2,-,N/A,,Overcast,20,2012-10-12 07:52:00
3:52 AM,43.0,23.0,45,30.38,10.0,NNE,9.2,-,N/A,,Partly Cloudy,20,2012-10-12 08:52:00
5:52 AM,39.0,23.0,53,30.41,10.0,NE,8.1,-,N/A,,Clear,40,2012-10-12 10:52:00
6:52 AM,37.9,23.0,55,30.43,10.0,ENE,9.2,-,N/A,,Clear,60,2012-10-12 11:52:00
7:52 AM,37.9,23.0,55,30.45,10.0,ENE,5.8,-,N/A,,Clear,60,2012-10-12 12:52:00
8:52 AM,41.0,24.1,51,30.47,10.0,ENE,10.4,-,N/A,,Clear,60,2012-10-12 13:52:00
9:52 AM,44.1,24.1,45,30.47,10.0,East,11.5,18.4,N/A,,Clear,80,2012-10-12 14:52:00
10:52 AM,46.9,23.0,39,30.47,10.0,East,9.2,17.3,N/A,,Clear,90,2012-10-12 15:52:00
12:52 PM,53.1,19.9,27,30.41,10.0,ESE,12.7,18.4,N/A,,Clear,120,2012-10-12 17:52:00
2:52 PM,57.0,17.1,21,30.35,10.0,SE,11.5,17.3,N/A,,Clear,140,2012-10-12 19:52:00
3:52 PM,57.0,16.0,20,30.32,10.0,ESE,9.2,-,N/A,,Clear,120,2012-10-12 20:52:00
4:52 PM,57.0,17.1,21,30.30,10.0,ESE,12.7,-,N/A,,Clear,120,2012-10-12 21:52:00
5:52 PM,55.0,19.9,25,30.28,10.0,SE,8.1,-,N/A,,Clear,130,2012-10-12 22:52:00
6:52 PM,50.0,23.0,35,30.27,10.0,SE,4.6,-,N/A,,Clear,130,2012-10-12 23:52:00
7:52 PM,51.1,25.0,36,30.23,10.0,ESE,6.9,-,N/A,,Clear,110,2012-10-13 00:52:00
8:52 PM,50.0,28.0,43,30.22,10.0,ESE,9.2,-,N/A,,Clear,120,2012-10-13 01:52:00
10:47 PM,48.2,39.2,71,30.20,10.0,SE,5.8,-,0.01,Rain,Light Rain,140,2012-10-13 03:47:00
10:52 PM,48.9,39.0,69,30.21,10.0,SE,4.6,-,0.01,Rain,Light Rain,130,2012-10-13 03:52:00